Regional Weather Roundup
Issued by NWS

Home | Current Version | Previous Version | Graphics & Text | Print | Product List | Glossary On
Versions: 1 2 3 4 5 6 7 8 9 10 11 12 13 14 15 16 17 18 19 20 21 22 23 24 25 26 27 28 29 30 31 32 33 34 35 36 37 38 39 40 41 42 43 44 45 46 47 48 49 50
000
ASUS45 KABQ 170301
RWRNM
WEATHER ROUNDUP FOR NEW MEXICO
NATIONAL WEATHER SERVICE ALBUQUERQUE NM
900 PM MDT WED APR 16 2014

NOTE: "FAIR" MEANS FEW OR NO CLOUDS BELOW 12,000 FEET AGL WITH NO
       SIGNIFICANT WEATHER OR OBSTRUCTIONS TO VISION.

      THIS PRODUCT IS RELEASED AS TWO VERSIONS.  ONE VERSION NEAR
      THE TOP OF THE HOUR CONTAINING PRELIMINARY DATA FROM ALBUQUERQUE
      AND OTHER STATIONS.  A FINAL VERSION WITH ADDITIONAL DATA IS
      ISSUED ABOUT 10 MINUTES AFTER THE HOUR.

NMZ501-503-504-510>518-170400-
NORTHWEST PLATEAU/NORTHCENTRAL MOUNTAINS

CITY           SKY/WX    TMP DP  RH WIND       PRES   REMARKS
FARMINGTON     CLEAR     51  23  33 W8        29.93R
LOS ALAMOS     CLOUDY    51  20  29 W29G44    29.97R
SANTA FE       CLOUDY    57  17  21 NW16G22   29.94R
TAOS           CLOUDY    50  18  27 NW12      30.00R
ANGEL FIRE     LGT RAIN  37  32  82 N5        30.07R WCI  33

$$
NMZ402-403-502-505>509-170400-
WESTCENTRAL MOUNTAINS/SOUTHWEST MOUNTAINS

CITY           SKY/WX    TMP DP  RH WIND       PRES   REMARKS
GALLUP         MOCLDY    52  19  27 N7        29.97R
SILVER CITY    CLOUDY    63   0   8 W12       29.91R

$$
NMZ407-409-411-412-170400-
SOUTHERN DESERTS

CITY           SKY/WX    TMP DP  RH WIND       PRES   REMARKS
DEMING         PTCLDY    69   4   7 NW9       29.82R
LAS CRUCES     CLEAR     69   2   7 W15       29.81R
HOLLOMAN AFB   PTCLDY    68  -3   6 SW9       29.76R
T OR C         CLOUDY    71   2   6 NW15G22   29.81R

$$
NMZ519>523-170400-
CENTRAL VALLEYS/CENTRAL HIGHLANDS

CITY           SKY/WX    TMP DP  RH WIND       PRES   REMARKS
ALBUQUERQUE    CLOUDY    62  20  19 N18G29    29.91R
DOUBLE EAGLE   MOCLDY    57  21  24 NW22      29.93R
MORIARTY ARPT  FAIR      58  15  18 NW23G30   29.95R
CLINES CORNERS CLOUDY    56  11  16 NW17G28   29.96R
BELEN          FAIR      64  18  16 N18G28    29.89R
SOCORRO        NOT AVBL

$$
NMZ524>526-539-540-170400-
SOUTHCENTRAL MOUNTAINS

CITY           SKY/WX    TMP DP  RH WIND       PRES   REMARKS
RUIDOSO        NOT AVBL

$$
NMZ527>531-170400-
NORTHEAST HIGHLANDS/NORTHEAST PLAINS

CITY           SKY/WX    TMP DP  RH WIND       PRES   REMARKS
LAS VEGAS      CLOUDY    47  24  40 NE20G29   30.01R
RATON          LGT RAIN  38  36  92 N9        30.05R WCI  31
CLAYTON        CLOUDY    51  24  34 NE14      30.00R

$$
NMZ532>537-170400-
EASTCENTRAL PLAINS

CITY           SKY/WX    TMP DP  RH WIND       PRES   REMARKS
TUCUMCARI      CLOUDY    59  27  29 NE29G35   29.88R
CANNON AFB     CLOUDY    62  17  17 N25G36    29.81R
CLOVIS AIRPORT CLOUDY    61  16  17 N24       29.84R

$$
NMZ028-029-538-170400-
SOUTHEAST PLAINS

CITY           SKY/WX    TMP DP  RH WIND       PRES   REMARKS
ROSWELL        PTCLDY    66  11  11 W8        29.71R
CARLSBAD       CLEAR     63   0   8 SW12      29.72R
HOBBS          LGT RAIN  66  25  20 SE18G25   29.79R


$$



USA.gov is the U.S. government's official web portal to all federal, state and local government web resources and services.